TimeEDT,TemperatureF,Dew PointF,Humidity,Sea Level PressureIn,VisibilityMPH,Wind Direction,Wind SpeedMPH,Gust SpeedMPH,PrecipitationIn,Events,Conditions,WindDirDegrees,DateUTC
12:15 AM,42.8,42.8,100,30.12,4.0,South,6.9,-,N/A,,Overcast,170,2013-03-12 04:15:00
12:35 AM,44.6,44.6,100,30.12,3.0,South,6.9,-,N/A,,Overcast,180,2013-03-12 04:35:00
12:55 AM,44.6,44.6,100,30.11,4.0,South,6.9,-,N/A,,Overcast,180,2013-03-12 04:55:00
1:15 AM,44.6,44.6,100,30.11,5.0,South,8.1,-,N/A,,Mostly Cloudy,170,2013-03-12 05:15:00
1:35 AM,44.6,44.6,100,30.10,7.0,South,8.1,-,N/A,,Partly Cloudy,180,2013-03-12 05:35:00
1:55 AM,46.4,46.4,100,30.08,7.0,South,9.2,-,N/A,,Partly Cloudy,170,2013-03-12 05:55:00
2:15 AM,46.4,46.4,100,30.06,7.0,South,9.2,18.4,N/A,,Clear,170,2013-03-12 06:15:00
2:35 AM,46.4,46.4,100,30.06,7.0,South,11.5,-,N/A,,Clear,170,2013-03-12 06:35:00
2:55 AM,46.4,46.4,100,30.05,7.0,South,8.1,-,N/A,,Clear,170,2013-03-12 06:55:00
3:15 AM,46.4,46.4,100,30.04,8.0,South,9.2,-,N/A,,Clear,170,2013-03-12 07:15:00
3:35 AM,48.2,46.4,93,30.04,9.0,South,8.1,-,N/A,,Clear,190,2013-03-12 07:35:00
3:55 AM,48.2,46.4,93,30.04,10.0,South,9.2,-,N/A,,Clear,190,2013-03-12 07:55:00
4:35 AM,48.2,46.4,93,30.04,9.0,South,11.5,16.1,N/A,,Mostly Cloudy,180,2013-03-12 08:35:00
4:55 AM,48.2,46.4,93,30.04,10.0,South,11.5,18.4,N/A,,Scattered Clouds,180,2013-03-12 08:55:00
5:15 AM,48.2,46.4,93,30.03,10.0,South,9.2,18.4,N/A,,Scattered Clouds,170,2013-03-12 09:15:00
5:35 AM,48.2,46.4,93,30.03,10.0,SSE,6.9,-,N/A,,Mostly Cloudy,160,2013-03-12 09:35:00
5:55 AM,48.2,46.4,93,30.03,9.0,South,8.1,-,N/A,,Mostly Cloudy,180,2013-03-12 09:55:00
6:15 AM,48.2,46.4,93,30.02,10.0,South,8.1,-,N/A,,Scattered Clouds,180,2013-03-12 10:15:00
6:35 AM,48.2,46.4,93,30.02,8.0,South,6.9,-,N/A,,Mostly Cloudy,170,2013-03-12 10:35:00
6:55 AM,50.0,46.4,87,30.02,9.0,South,8.1,-,N/A,,Overcast,180,2013-03-12 10:55:00
7:15 AM,50.0,46.4,87,30.02,8.0,South,8.1,-,N/A,,Overcast,170,2013-03-12 11:15:00
7:35 AM,50.0,46.4,87,30.01,9.0,SSE,8.1,-,N/A,,Mostly Cloudy,160,2013-03-12 11:35:00
7:55 AM,51.8,46.4,82,30.02,9.0,South,9.2,-,N/A,,Mostly Cloudy,170,2013-03-12 11:55:00
8:15 AM,51.8,46.4,82,30.02,8.0,South,6.9,-,N/A,,Mostly Cloudy,170,2013-03-12 12:15:00
8:35 AM,51.8,46.4,82,30.02,9.0,South,6.9,-,N/A,,Overcast,170,2013-03-12 12:35:00
8:55 AM,51.8,46.4,82,30.01,9.0,South,10.4,-,N/A,,Overcast,170,2013-03-12 12:55:00
9:35 AM,51.8,46.4,82,30.00,9.0,South,6.9,-,N/A,,Overcast,190,2013-03-12 13:35:00
9:55 AM,51.8,46.4,82,29.99,8.0,South,8.1,-,N/A,,Overcast,190,2013-03-12 13:55:00
10:15 AM,51.8,46.4,82,29.98,8.0,South,8.1,-,N/A,Rain,Light Rain,180,2013-03-12 14:15:00
10:35 AM,51.8,48.2,88,29.98,5.0,South,12.7,18.4,0.01,Rain,Light Rain,190,2013-03-12 14:35:00
10:55 AM,51.8,48.2,88,29.97,4.0,South,8.1,16.1,0.02,Rain,Light Rain,190,2013-03-12 14:55:00
11:15 AM,51.8,50.0,94,29.96,3.0,South,10.4,-,0.01,Rain,Light Rain,170,2013-03-12 15:15:00
11:35 AM,51.8,48.2,88,29.95,2.5,South,6.9,-,0.03,Rain,Light Rain,180,2013-03-12 15:35:00
11:55 AM,51.8,50.0,94,29.94,2.5,South,10.4,-,0.05,Rain,Rain,180,2013-03-12 15:55:00
12:15 PM,51.8,50.0,94,29.93,2.5,South,10.4,16.1,0.02,Rain,Rain,180,2013-03-12 16:15:00
12:35 PM,51.8,51.8,100,29.92,2.0,South,13.8,19.6,0.06,Rain,Light Rain,180,2013-03-12 16:35:00
12:55 PM,51.8,51.8,100,29.91,2.5,South,15.0,20.7,0.09,Rain,Rain,170,2013-03-12 16:55:00
1:15 PM,51.8,51.8,100,29.90,2.0,South,15.0,24.2,0.02,Rain,Rain,180,2013-03-12 17:15:00
1:35 PM,51.8,51.8,100,29.89,1.5,South,12.7,20.7,0.07,Rain,Rain,170,2013-03-12 17:35:00
1:55 PM,51.8,51.8,100,29.87,1.5,South,17.3,25.3,0.13,Rain,Rain,180,2013-03-12 17:55:00
2:15 PM,51.8,51.8,100,29.85,1.8,South,15.0,19.6,0.03,Rain,Rain,170,2013-03-12 18:15:00
2:35 PM,51.8,51.8,100,29.84,2.0,South,17.3,24.2,0.06,Rain,Light Rain,170,2013-03-12 18:35:00
2:55 PM,51.8,51.8,100,29.83,1.5,South,15.0,21.9,0.11,Rain,Rain,170,2013-03-12 18:55:00
3:15 PM,51.8,51.8,100,29.81,1.5,South,16.1,27.6,0.04,Rain,Rain,180,2013-03-12 19:15:00
3:35 PM,51.8,51.8,100,29.80,1.5,South,15.0,25.3,0.10,Rain,Rain,170,2013-03-12 19:35:00
3:55 PM,51.8,51.8,100,29.78,1.5,South,16.1,25.3,0.18,Rain,Rain,170,2013-03-12 19:55:00
4:15 PM,51.8,51.8,100,29.77,1.8,South,17.3,21.9,0.03,Rain,Rain,170,2013-03-12 20:15:00
4:35 PM,53.6,53.6,100,29.75,1.5,South,19.6,27.6,0.09,Rain,Heavy Rain,170,2013-03-12 20:35:00
4:55 PM,53.6,53.6,100,29.73,1.2,SSE,19.6,29.9,0.19,Rain,Rain,160,2013-03-12 20:55:00
5:15 PM,53.6,53.6,100,29.72,1.0,South,20.7,31.1,0.08,Rain,Heavy Rain,170,2013-03-12 21:15:00
5:35 PM,53.6,53.6,100,29.72,0.8,South,16.1,27.6,0.36,Rain,Heavy Rain,180,2013-03-12 21:35:00
5:55 PM,53.6,53.6,100,29.73,1.2,South,20.7,31.1,0.44,Rain,Rain,180,2013-03-12 21:55:00
6:15 PM,51.8,51.8,100,29.73,0.8,SSW,15.0,29.9,0.03,Rain,Light Rain,200,2013-03-12 22:15:00
6:35 PM,51.8,51.8,100,29.74,2.5,SSW,17.3,29.9,0.03,,Light Drizzle,200,2013-03-12 22:35:00
6:55 PM,51.8,51.8,100,29.75,1.2,SSW,13.8,24.2,0.03,,Light Drizzle,200,2013-03-12 22:55:00
7:15 PM,51.8,51.8,100,29.75,0.5,SSW,11.5,23.0,N/A,Fog,Fog,210,2013-03-12 23:15:00
7:35 PM,51.8,51.8,100,29.76,0.2,SSW,10.4,17.3,N/A,,Light Drizzle,210,2013-03-12 23:35:00
7:55 PM,51.8,51.8,100,29.76,0.2,SW,10.4,18.4,N/A,Fog,Fog,230,2013-03-12 23:55:00
8:15 PM,50.0,50.0,100,29.76,0.2,WSW,5.8,16.1,N/A,Fog,Fog,250,2013-03-13 00:15:00
8:35 PM,50.0,50.0,100,29.75,0.2,WSW,6.9,-,N/A,Fog,Fog,240,2013-03-13 00:35:00
8:55 PM,50.0,50.0,100,29.76,0.2,West,5.8,-,N/A,Fog,Fog,260,2013-03-13 00:55:00
9:15 PM,50.0,50.0,100,29.75,0.2,West,4.6,-,N/A,Fog,Fog,280,2013-03-13 01:15:00
9:35 PM,48.2,48.2,100,29.76,0.2,NW,4.6,-,N/A,Rain,Light Rain,310,2013-03-13 01:35:00
9:55 PM,50.0,50.0,100,29.75,4.0,NW,4.6,-,N/A,,Overcast,320,2013-03-13 01:55:00
10:15 PM,48.2,48.2,100,29.78,10.0,NW,11.5,17.3,N/A,,Overcast,320,2013-03-13 02:15:00
10:35 PM,44.6,44.6,100,29.78,10.0,NNW,10.4,17.3,N/A,,Overcast,330,2013-03-13 02:35:00
10:55 PM,44.6,44.6,100,29.78,10.0,NNW,15.0,19.6,N/A,,Overcast,340,2013-03-13 02:55:00
11:15 PM,42.8,42.8,100,29.78,10.0,NNW,19.6,27.6,N/A,,Mostly Cloudy,340,2013-03-13 03:15:00
11:35 PM,42.8,39.2,87,29.79,10.0,North,10.4,16.1,N/A,,Clear,350,2013-03-13 03:35:00
11:55 PM,42.8,37.4,81,29.79,10.0,North,13.8,19.6,N/A,,Clear,350,2013-03-13 03:55:00